| time (UTC) | temp F | wind direction | speed MPH | gust MPH | rain 1hr in | rain 24hr in | rain mn in | humidity % | barometer mb |
| 20260903020008 | 82 | 107 | 4.0 | 12.0 | 0.00 | 0.02 | 0.02 | 72 | 1011.3 |
| 20260903014526 | 82 | 77 | 4.0 | 10.0 | 0.00 | 0.02 | 0.02 | 72 | 1011.1 |
| 20260903013025 | 82 | 115 | 3.0 | 9.0 | 0.00 | 0.02 | 0.02 | 71 | 1010.8 |
| 20260903011546 | 82 | 121 | 5.0 | 10.0 | 0.00 | 0.02 | 0.02 | 71 | 1010.9 |
| 20260903010033 | 83 | 63 | 4.0 | 8.0 | 0.00 | 0.02 | 0.02 | 70 | 1010.7 |
| 20260903004521 | 83 | 69 | 4.0 | 10.0 | 0.00 | 0.02 | 0.02 | 70 | 1010.6 |
| 20260903003004 | 84 | 82 | 6.0 | 15.0 | 0.00 | 0.02 | 0.02 | 70 | 1010.3 |
| 20260903001557 | 84 | 119 | 8.0 | 16.0 | 0.00 | 0.02 | 0.02 | 69 | 1010.3 |
| 20260903000033 | 85 | 88 | 8.0 | 15.0 | 0.00 | 0.02 | 0.02 | 69 | 1010.4 |
| 20260902234528 | 86 | 128 | 6.0 | 14.0 | 0.00 | 0.02 | 0.02 | 69 | 1010.5 |
| 20260902233010 | 86 | 81 | 10.0 | 17.0 | 0.00 | 0.02 | 0.02 | 69 | 1010.6 |
| 20260902231533 | 86 | 75 | 8.0 | 15.0 | 0.00 | 0.02 | 0.02 | 69 | 1010.5 |
| 20260902230019 | 86 | 76 | 10.0 | 17.0 | 0.00 | 0.02 | 0.02 | 68 | 1010.4 |
| 20260902224511 | 87 | 73 | 9.0 | 14.0 | 0.00 | 0.02 | 0.02 | 68 | 1009.9 |
| 20260902223051 | 87 | 108 | 5.0 | 13.0 | 0.00 | 0.02 | 0.02 | 67 | 1009.8 |
| 20260902221556 | 87 | 55 | 6.0 | 13.0 | 0.00 | 0.02 | 0.02 | 67 | 1009.6 |
| 20260902220035 | 87 | 66 | 5.0 | 13.0 | 0.00 | 0.02 | 0.02 | 66 | 1009.6 |
| 20260902214528 | 87 | 61 | 3.0 | 15.0 | 0.00 | 0.02 | 0.02 | 65 | 1009.6 |
| 20260902213107 | 87 | 118 | 4.0 | 7.0 | 0.02 | 0.02 | 0.02 | 64 | 1009.6 |
| 20260902211535 | 87 | 98 | 3.0 | 7.0 | 0.02 | 0.02 | 0.02 | 62 | 1009.8 |
| 20260902210056 | 88 | 63 | 3.0 | 4.0 | 0.02 | 0.02 | 0.02 | 61 | 1009.9 |
| 20260902204515 | 91 | 295 | 8.0 | 16.0 | 0.02 | 0.02 | 0.02 | 61 | 1010.4 |
| 20260902203020 | 91 | 58 | 4.0 | 7.0 | 0.00 | 0.00 | 0.00 | 62 | 1010.2 |
| 20260902201540 | 93 | 76 | 3.0 | 7.0 | 0.00 | 0.00 | 0.00 | 63 | 1010.2 |
| 20260902200034 | 93 | 259 | 3.0 | 15.0 | 0.00 | 0.00 | 0.00 | 65 | 1010.3 |
| 20260902194518 | 94 | 266 | 3.0 | 9.0 | 0.00 | 0.00 | 0.00 | 66 | 1010.6 |
| 20260902193010 | 92 | 254 | 5.0 | 11.0 | 0.00 | 0.00 | 0.00 | 68 | 1010.8 |
| 20260902191603 | 92 | 273 | 6.0 | 16.0 | 0.00 | 0.00 | 0.00 | 68 | 1011.1 |
| 20260902190015 | 92 | 258 | 6.0 | 15.0 | 0.00 | 0.00 | 0.00 | 70 | 1011.3 |
| 20260902184616 | 91 | 284 | 8.0 | 14.0 | 0.00 | 0.00 | 0.00 | 71 | 1011.5 |
| 20260902183015 | 91 | 257 | 5.0 | 16.0 | 0.00 | 0.00 | 0.00 | 72 | 1011.7 |
| 20260902181501 | 92 | 257 | 6.0 | 18.0 | 0.00 | 0.00 | 0.00 | 74 | 1011.9 |
| 20260902180033 | 91 | 268 | 10.0 | 18.0 | 0.00 | 0.00 | 0.00 | 75 | 1012.3 |
| 20260902174517 | 91 | 260 | 6.0 | 20.0 | 0.00 | 0.00 | 0.00 | 76 | 1012.6 |
| 20260902173002 | 91 | 257 | 6.0 | 17.0 | 0.00 | 0.00 | 0.00 | 78 | 1012.8 |
| 20260902171542 | 90 | 275 | 8.0 | 14.0 | 0.00 | 0.00 | 0.00 | 78 | 1013.1 |
| 20260902170015 | 89 | 254 | 6.0 | 13.0 | 0.00 | 0.00 | 0.00 | 80 | 1013.4 |
| 20260902164603 | 88 | 311 | 5.0 | 11.0 | 0.00 | 0.00 | 0.00 | 81 | 1013.6 |
| 20260902163030 | 88 | 288 | 5.0 | 9.0 | 0.00 | 0.00 | 0.00 | 81 | 1013.8 |
| 20260902161526 | 87 | 235 | 4.0 | 9.0 | 0.00 | 0.00 | 0.00 | 82 | 1013.9 |
| 20260902160040 | 85 | 250 | 5.0 | 12.0 | 0.00 | 0.00 | 0.00 | 82 | 1014.0 |
| 20260902154528 | 85 | 284 | 2.0 | 9.0 | 0.00 | 0.00 | 0.00 | 82 | 1014.0 |
| 20260902153014 | 85 | 212 | 4.0 | 11.0 | 0.00 | 0.00 | 0.00 | 83 | 1013.9 |
| 20260902151509 | 83 | 277 | 6.0 | 11.0 | 0.00 | 0.00 | 0.00 | 83 | 1013.8 |
| 20260902150038 | 82 | 323 | 5.0 | 9.0 | 0.00 | 0.00 | 0.00 | 83 | 1014.0 |
| 20260902144538 | 81 | 283 | 2.0 | 7.0 | 0.00 | 0.00 | 0.00 | 83 | 1014.0 |
| 20260902143055 | 79 | 338 | 5.0 | 9.0 | 0.00 | 0.00 | 0.00 | 83 | 1014.1 |
| 20260902141523 | 78 | 325 | 1.0 | 4.0 | 0.00 | 0.00 | 0.00 | 82 | 1014.0 |
| 20260902140006 | 77 | 323 | 1.0 | 4.0 | 0.00 | 0.00 | 0.00 | 82 | 1014.1 |
| 20260902134514 | 77 | 325 | 2.0 | 4.0 | 0.00 | 0.00 | 0.00 | 81 | 1014.1 |
| 20260902133005 | 77 | 326 | 0.0 | 4.0 | 0.00 | 0.00 | 0.00 | 81 | 1014.1 |
| 20260902131545 | 76 | 303 | 1.0 | 4.0 | 0.00 | 0.00 | 0.00 | 81 | 1014.0 |
| 20260902130024 | 76 | 306 | 2.0 | 4.0 | 0.00 | 0.00 | 0.00 | 81 | 1013.6 |
| 20260902124610 | 76 | 269 | 3.0 | 6.0 | 0.00 | 0.00 | 0.00 | 80 | 1013.4 |
| 20260902123042 | 75 | 272 | 2.0 | 4.0 | 0.00 | 0.00 | 0.00 | 80 | 1013.2 |
| 20260902121604 | 75 | 256 | 2.0 | 4.0 | 0.00 | 0.00 | 0.00 | 80 | 1013.1 |
| 20260902120018 | 75 | 255 | 2.0 | 6.0 | 0.00 | 0.00 | 0.00 | 79 | 1013.1 |
| 20260902114521 | 75 | 258 | 2.0 | 4.0 | 0.00 | 0.00 | 0.00 | 79 | 1013.0 |
| 20260902113011 | 75 | 325 | 2.0 | 4.0 | 0.00 | 0.00 | 0.00 | 79 | 1013.0 |